Regional Weather Roundup
Issued by NWS

Home | Current Version | Previous Version | Text Only | Print | Product List | Glossary Off
Versions: 1 2 3 4 5 6 7 8 9 10 11 12 13 14 15 16 17 18 19 20 21 22 23 24 25 26 27 28 29 30 31 32 33 34 35 36 37 38 39 40 41 42 43 44 45 46 47 48 49 50

643
ASUS44 KJAN 290003
RWRMS

MISSISSIPPI HOURLY WEATHER ROUNDUP
NATIONAL WEATHER SERVICE JACKSON MS
700 PM CDT MON JUL 28 2014

NOTE: "FAIR: INDICATES FEW OR NO CLOUDS BELOW 12,000 FEET WITH NO
SIGNIFICANT WEATHER AND/OR OBSTRUCTIONS TO VISIBILITY.

MSZ001>002-007>008-010>013-018>021-025>028-034>036-290100-
NORTHWEST MISSISSIPPI

CITY           SKY/WX    TMP DP  RH WIND       PRES   REMARKS
CLARKSDALE     FAIR      82  66  57 NW5       30.03S
CLEVELAND      FAIR      81  67  62 N9        30.01S
GREENWOOD      MOSUNNY   83  65  54 N7        30.01R
6HR MIN TEMP:  83; 6HR MAX TEMP:  89;

GREENVILLE     SUNNY     84  65  52 NW9       30.01S
6HR MIN TEMP:  83; 6HR MAX TEMP:  90;

GRENADA        FAIR      81  63  54 N5        30.01S
OLIVE BRANCH   MOSUNNY   81  64  57 N8        30.03S
OXFORD         FAIR      81  63  54 N6        30.04S
TUNICA         CLEAR     81  63  54 N9        30.03S
$$

MSZ003>006-009-014>017-022>024-029>033-037>039-290100-
NORTHEAST MISSISSIPPI

CITY           SKY/WX    TMP DP  RH WIND       PRES   REMARKS
BELMONT        FAIR      79  63  57 N5        30.01S
COLUMBUS AFB   SUNNY     83  64  52 N8        29.99S
6HR MIN TEMP:  83; 6HR MAX TEMP:  88;

CORINTH        FAIR      81  63  54 NW7       30.01S
GOLDN TRIANGLE MOSUNNY   84  64  51 N7        29.99S
STARKVILLE     FAIR      82  63  51 N5        29.99S
TUPELO         SUNNY     80  64  58 NE10      30.00S
6HR MIN TEMP:  80; 6HR MAX TEMP:  86;

$$

MSZ040-058-290100-
CENTRAL MISSISSIPPI

CITY           SKY/WX    TMP DP  RH WIND       PRES   REMARKS
JACKSON INTL   MOSUNNY   87  67  51 NW10      30.00R HX  90
6HR MIN TEMP:  87; 6HR MAX TEMP:  93;

JACKSON HAWKNS SUNNY     87  66  49 N6        30.01R
6HR MIN TEMP:  87; 6HR MAX TEMP:  91;

MERIDIAN KEY   SUNNY     87  63  44 NW8       29.95S
6HR MIN TEMP:  87; 6HR MAX TEMP:  94;

MERIDIAN NAS   MOSUNNY   88  64  44 N12       29.96S
6HR MIN TEMP:  88; 6HR MAX TEMP:  95;

RAYMOND        MOCLDY    86  82  89 N6        30.00S HX 105
VICKSBURG      SUNNY     85  69  58 N6        30.01R
6HR MIN TEMP:  85; 6HR MAX TEMP:  93;

$$

MSZ059>079-290100-
SOUTH MISSISSIPPI

CITY           SKY/WX    TMP DP  RH WIND       PRES   REMARKS
BROOKHAVEN     FAIR      86  75  70 NW6       30.01F HX  95
COLUMBIA       FAIR      88  77  70 VRB6      29.96S HX 100
HATTIESBURG    MOSUNNY   90  73  57 NW9       29.96S HX  98
6HR MIN TEMP:  90; 6HR MAX TEMP:  94;

MCCOMB         PTSUNNY   82  74  76 NW6       30.00R
6HR MIN TEMP:  82; 6HR MAX TEMP:  91; 6HR PCP: TRACE;

NATCHEZ        PTSUNNY   82  75  78 SW3       30.02R
6HR MIN TEMP:  82; 6HR MAX TEMP:  88;

PINE BELT      MOSUNNY   88  73  62 NW6       29.98S HX  96
6HR MIN TEMP:  88; 6HR MAX TEMP:  93;

$$

MSZ080>082-290100-
COASTAL MISSISSIPPI

CITY           SKY/WX    TMP DP  RH WIND       PRES   REMARKS
BILOXI         PTCLDY    90  77  66 VRB2      29.95S HX 102
6HR MIN TEMP:  89; 6HR MAX TEMP:  94;

PASCAGOULA     MOCLDY    89  75  63 W6        29.94F HX  99
6HR MIN TEMP:  89; 6HR MAX TEMP:  95;

GULFPORT       PTCLDY    92  75  57 W7        29.94F HX 103
6HR MIN TEMP:  92; 6HR MAX TEMP:  99;

$$



USA.gov is the U.S. government's official web portal to all federal, state and local government web resources and services.